RH
61 62 63 66 69 72 77 81 83 85 87 84 76 69 65 60 50 36 24 17 18 22 23 26 29 28 27 26 26 29 35 42 48 51 56 63 67 70 74 73 73 75 75 74 74 74 72 67 64 64 64 65 65 63 63 63 63 67 71 72 73 74 71
63 64 65 67 70 73 78 83 85 88 90 86 77 70 67 63 52 36 24 19 20 22 24 28 31 31 31 29 28 30 32 35 42 50 59 69 74 75 75 75 72 70 74 78 78 77 75 71 70 71 69 67 63 60 61 65 67 71 75 76 73 74 74
66 67 68 70 72 76 80 84 88 91 91 86 78 72 69 65 54 36 23 20 21 22 25 30 33 33 34 34 34 34 33 36 41 44 54 66 75 77 76 78 79 77 78 81 83 83 81 79 78 75 71 67 64 64 66 70 75 77 80 80 81 82 80
70 70 72 74 76 80 83 86 91 92 90 86 79 75 72 65 51 35 24 20 20 21 23 28 33 35 35 38 43 42 39 42 46 49 66 82 87 89 88 85 87 85 82 81 83 84 86 87 86 81 74 69 70 73 75 77 80 83 83 83 86 88 86
75 75 76 78 80 82 86 89 92 92 89 85 79 76 73 64 49 33 24 21 20 21 22 24 28 31 35 43 50 49 45 46 48 56 79 94 94 95 97 94 95 94 90 87 85 85 86 88 89 86 81 77 80 84 84 83 83 84 85 87 88 88 87
79 80 80 82 84 86 90 92 93 92 89 84 79 76 72 62 46 31 23 21 20 21 22 23 25 27 34 42 47 48 51 55 55 58 73 87 90 92 96 96 96 97 97 98 97 95 95 94 93 92 91 88 89 92 91 88 85 83 85 90 91 89 86
84 84 85 86 88 91 92 93 92 90 88 84 79 77 71 57 40 29 24 22 21 22 22 22 24 27 32 37 39 44 52 58 61 61 64 76 85 89 92 91 87 89 94 98 99 100 100 99 98 97 98 95 94 96 94 90 88 85 85 88 88 86 84
88 88 89 90 91 93 93 92 91 90 87 83 80 77 68 50 35 26 23 23 22 22 23 23 24 25 28 30 33 41 49 53 57 62 61 68 82 90 91 86 78 80 89 94 98 101 99 98 100 100 100 98 97 97 94 90 88 86 86 88 88 86 84
93 92 93 93 93 94 93 92 91 89 86 82 80 73 57 39 28 24 23 24 24 24 24 24 25 25 25 28 32 40 49 50 53 59 62 67 80 89 91 88 82 84 93 97 100 103 101 100 101 101 101 100 98 96 93 88 86 86 88 88 87 87 84
96 96 96 95 96 95 94 92 91 88 85 82 75 60 41 30 25 24 23 22 22 24 25 24 24 24 23 28 36 43 50 57 63 70 74 77 83 89 93 95 95 97 102 103 103 102 101 101 101 101 102 101 99 96 92 89 88 87 89 90 90 91 89
100 99 97 97 97 95 93 92 90 87 83 75 60 41 29 25 23 23 22 23 24 23 23 23 23 24 28 35 46 55 62 68 75 81 85 87 88 91 96 99 101 103 103 102 103 103 101 101 100 100 101 100 100 98 95 93 92 90 92 92 92 94 93
101 100 99 99 96 93 93 91 87 84 76 60 42 31 29 27 24 22 18 18 21 21 23 25 24 29 38 45 53 66 76 80 82 84 87 89 89 90 95 99 101 103 103 102 102 102 101 102 102 102 102 101 101 101 100 98 97 96 97 97 98 100 97
99 99 98 97 94 93 91 87 84 77 62 43 31 29 31 36 46 53 46 35 28 23 23 26 32 45 55 57 66 80 87 88 88 89 89 90 93 95 97 98 96 97 102 102 101 101 101 102 102 102 102 102 102 102 101 100 99 100 100 98 98 99 97
96 97 97 95 93 90 86 82 77 62 43 32 29 27 30 44 64 76 78 78 69 55 47 46 57 74 76 73 82 89 85 83 85 88 88 88 92 96 99 100 98 97 102 102 100 101 101 100 101 102 102 101 100 100 101 102 100 98 97 96 95 94 96
96 96 95 91 87 84 81 74 61 43 31 28 25 22 31 53 72 80 88 101 98 88 87 87 89 95 93 90 92 87 80 79 81 86 90 88 88 94 100 103 102 100 102 103 101 101 101 100 100 99 98 95 90 91 96 97 91 85 90 98 100 99 102
94 92 88 85 82 78 69 56 42 31 28 24 20 21 30 50 70 80 88 91 79 75 91 103 101 99 99 100 99 94 92 93 91 93 95 92 91 96 100 100 98 96 98 102 103 102 100 100 99 94 91 88 84 84 88 89 87 88 95 102 102 101 102
88 85 83 79 71 59 47 38 31 27 22 19 20 22 25 34 51 69 81 80 70 73 91 100 97 96 98 94 90 87 86 87 92 100 101 97 98 101 98 93 89 87 88 93 99 99 94 91 92 89 85 82 82 86 91 94 98 101 102 101 100 100 101
82 78 71 60 48 39 34 30 26 21 18 19 22 24 30 41 57 75 84 79 72 76 83 80 72 75 79 73 66 68 67 67 81 100 104 100 100 103 99 91 85 83 80 77 80 84 83 84 88 91 90 87 88 93 99 101 102 101 100 100 101 101 100
69 58 48 40 35 32 29 24 19 17 18 21 22 24 37 57 77 88 82 71 71 77 77 70 59 56 62 62 59 65 69 70 81 98 104 100 99 102 100 91 85 83 77 69 65 66 69 75 80 86 90 91 93 97 100 102 102 102 102 101 100 100 99
48 41 36 34 31 27 22 19 18 18 19 21 23 25 35 57 82 90 76 70 80 81 72 67 62 55 57 62 64 66 71 79 92 100 101 101 101 101 99 92 88 84 76 71 69 65 65 70 73 78 84 85 86 86 85 87 91 92 95 99 101 103 102
39 37 34 30 25 21 18 17 17 18 19 21 23 26 32 49 73 83 76 75 82 75 61 60 63 62 60 63 68 69 67 77 96 103 101 102 102 96 91 89 92 91 86 85 87 85 83 84 84 84 86 85 84 82 77 75 74 74 77 81 85 91 97
37 33 29 24 21 18 17 17 18 19 21 23 24 25 29 36 50 64 73 80 80 70 61 61 64 66 66 67 73 72 63 68 90 102 100 99 99 93 89 90 94 96 96 99 101 100 98 96 92 89 85 82 79 77 73 72 70 67 65 66 69 74 83
32 28 24 21 19 18 17 17 19 19 21 23 25 27 31 39 48 62 79 89 83 68 64 70 74 72 71 72 74 73 71 80 96 102 96 91 94 97 98 99 100 100 101 102 101 101 101 100 98 97 94 90 83 76 75 82 87 80 70 66 68 72 75
27 24 22 20 19 19 19 19 20 21 22 24 26 30 38 48 56 64 78 92 93 82 78 88 89 80 76 81 85 87 91 96 99 97 93 92 97 103 103 102 102 102 102 102 101 100 100 100 100 100 100 100 98 94 92 96 98 92 83 80 81 83 84
24 22 22 21 20 20 20 21 22 22 23 25 29 37 48 57 62 63 67 78 85 82 83 90 91 84 86 94 99 100 102 102 99 96 95 97 102 103 101 101 102 102 102 102 101 101 101 101 101 101 102 101 102 103 102 100 98 96 94 93 91 87 85
25 24 23 22 22 22 22 23 24 25 25 28 33 41 51 61 65 65 65 68 70 71 76 83 86 85 87 90 92 92 93 94 96 96 95 97 100 102 101 100 100 101 101 101 100 100 102 102 101 101 102 102 101 101 99 95 94 94 93 91 90 87 84
25 25 24 24 25 25 25 25 25 26 28 32 39 47 55 62 66 69 71 72 72 73 76 79 81 81 82 83 83 83 82 82 84 86 86 85 84 85 87 88 91 96 101 103 103 101 101 103 102 100 100 101 98 94 91 89 91 94 94 95 98 98 96
27 25 25 25 26 27 27 28 28 30 34 40 48 55 62 67 72 76 78 78 78 80 83 86 87 88 89 91 90 87 84 82 81 81 80 78 77 77 77 77 79 84 89 91 92 91 92 95 99 100 100 100 98 97 96 96 98 101 102 102 102 102 99
29 27 27 29 30 30 31 31 32 35 42 52 61 66 69 74 78 82 85 85 88 92 95 97 98 98 98 100 99 96 93 90 89 91 92 91 91 94 93 88 83 82 83 84 85 87 91 96 101 103 103 104 104 103 102 101 102 104 104 102 101 100 97
29 29 30 30 30 31 33 35 40 49 63 78 85 85 87 90 92 94 94 94 97 101 102 101 101 101 100 101 101 101 99 97 96 99 100 99 100 101 100 94 86 84 87 90 92 96 100 103 105 105 105 104 103 102 101 102 103 102 100 100 100 100 98
29 30 35 42 46 45 45 50 60 72 85 91 90 88 92 98 100 101 101 99 99 100 101 100 100 100 100 100 100 100 100 100 101 101 100 100 102 102 99 95 90 88 89 92 95 100 103 104 104 103 103 102 101 102 103 102 102 99 97 97 100 101 100
31 34 46 70 87 88 84 88 94 99 101 99 95 94 100 103 101 101 102 101 100 100 101 102 101 100 100 100 101 101 101 101 103 103 101 102 104 103 102 101 99 97 96 95 98 101 103 102 101 100 101 101 101 102 103 100 98 96 95 97 99 101 100
34 35 43 60 75 78 75 76 81 84 87 88 88 91 96 97 95 92 91 94 99 100 98 99 100 101 101 100 100 101 101 100 101 102 102 104 105 105 105 104 102 101 101 100 100 101 102 102 101 101 103 103 101 101 99 97 95 95 96 100 103 103 102
44 45 47 50 53 55 54 54 56 59 61 62 64 66 70 74 76 73 72 78 88 93 92 92 96 100 102 102 101 100 100 100 100 101 101 102 102 102 103 103 102 102 101 101 101 102 102 102 102 102 103 102 100 99 98 96 95 94 95 99 101 99 99
53 53 55 56 56 58 60 61 62 63 63 64 65 64 66 68 70 69 67 69 77 87 94 98 100 100 100 101 101 101 100 101 100 100 100 101 101 101 102 104 104 103 102 102 103 103 102 103 103 102 100 99 99 99 98 95 93 92 94 98 101 101 101
59 57 58 60 62 66 69 71 73 74 75 77 77 78 82 86 85 85 84 82 84 92 99 101 102 101 101 101 101 101 101 102 101 101 100 100 100 101 102 103 103 102 101 102 103 103 103 103 102 100 98 98 98 96 94 90 87 87 90 94 97 98 97
Wind_Speed
58 57 56 53 51 48 46 45 42 39 36 33 31 29 27 26 26 27 28 28 29 29 30 30 30 30 30 29 30 30 29 28 28 27 27 25 25 25 24 23 24 27 32 30 24 23 21 20 23 23 22 23 24 26 26 23 22 24 24 24 24 25 30
58 57 55 53 50 48 47 46 43 40 36 34 32 29 27 27 27 28 28 29 30 30 30 30 31 31 31 31 31 31 31 31 30 28 27 26 26 25 23 22 24 27 30 30 26 23 22 20 20 23 22 22 24 25 24 24 24 24 23 24 24 25 29
57 55 53 51 50 48 47 46 43 40 37 34 32 29 28 28 28 29 30 31 31 31 31 31 31 32 32 32 32 33 32 32 32 31 30 30 28 26 24 22 23 25 27 29 27 23 23 20 19 22 22 22 23 24 23 23 23 22 22 23 23 24 26
53 52 51 50 49 48 47 45 43 40 37 35 32 30 28 29 29 30 32 33 33 32 32 32 32 32 32 33 33 34 34 33 34 32 27 24 23 22 22 21 22 23 25 27 28 24 21 19 18 20 22 22 22 22 22 23 23 22 23 23 22 22 23
51 50 49 48 47 46 46 45 43 40 37 34 32 30 29 30 30 31 33 34 34 34 34 33 33 33 33 33 33 34 35 35 34 30 23 19 20 20 20 20 19 20 21 24 26 26 22 20 18 19 21 20 20 21 22 23 23 23 23 22 21 21 21
48 48 46 46 45 44 44 44 42 39 36 33 31 30 30 31 31 33 34 34 35 35 35 34 34 34 33 33 34 35 36 35 34 31 27 25 25 24 23 24 23 22 21 22 23 24 23 21 20 20 21 20 19 20 22 22 23 23 21 20 19 21 21
44 44 43 43 42 42 43 42 41 39 35 33 31 31 31 32 33 34 35 35 36 35 35 35 34 34 34 34 36 36 36 36 34 34 32 31 30 29 28 30 32 31 30 28 27 26 26 25 22 20 21 21 19 20 22 22 23 24 21 19 20 23 22
41 41 40 40 41 41 42 42 40 37 34 32 32 32 32 33 33 35 35 36 36 35 35 35 34 35 35 35 36 37 37 37 35 35 35 34 33 33 32 35 37 38 37 35 33 31 31 30 27 23 23 22 20 21 23 21 22 24 22 20 20 21 19
38 38 38 39 40 40 41 41 39 37 34 32 32 32 33 33 34 35 35 35 35 35 35 35 35 35 35 36 37 37 37 37 35 35 36 35 34 34 35 37 39 39 39 37 35 34 32 30 29 26 24 24 23 22 22 21 21 24 23 20 21 20 19
36 36 37 37 38 39 40 40 38 35 33 31 32 32 32 33 34 34 35 35 35 35 36 35 35 36 36 37 37 37 37 36 34 34 36 36 35 35 36 37 39 39 38 36 35 34 31 27 28 27 25 25 24 22 22 22 23 23 21 20 21 21 19
34 35 35 35 36 37 38 38 36 33 31 30 31 32 32 33 34 34 35 35 36 36 36 35 35 36 36 37 38 37 36 35 34 34 36 36 37 37 37 38 40 41 40 39 38 37 33 29 30 29 27 25 24 22 22 22 21 21 20 20 21 21 20
33 33 33 34 35 36 36 35 33 31 30 30 30 31 33 34 34 35 37 36 36 36 35 35 35 35 36 37 37 36 35 35 34 34 35 37 37 38 39 39 40 41 41 41 40 40 38 36 35 34 30 26 24 24 23 23 21 20 19 20 20 21 22
31 32 32 32 33 34 34 33 31 29 29 30 30 30 30 31 32 33 35 36 35 34 34 34 34 34 36 37 36 36 36 36 36 36 36 37 37 39 39 39 39 40 41 42 42 43 43 41 39 37 34 30 26 25 23 23 23 24 25 26 26 26 26
30 30 30 30 30 31 32 31 30 29 29 30 30 29 29 30 31 31 32 33 33 33 33 33 32 33 36 37 37 38 39 39 39 38 37 37 37 38 39 39 38 38 40 42 42 44 46 44 41 40 39 35 32 30 27 27 28 30 32 33 32 30 28
28 28 28 28 29 30 31 31 30 30 30 30 30 29 29 30 31 32 32 31 32 33 33 32 33 34 36 37 38 39 39 39 40 39 37 37 37 37 37 39 39 39 39 40 41 44 45 45 44 44 43 41 38 37 35 33 32 33 34 34 32 30 29
26 26 27 27 28 30 32 32 31 31 31 30 30 30 30 31 32 32 33 33 33 34 33 33 33 35 35 36 37 38 37 36 37 38 38 37 38 37 36 38 38 37 36 36 37 39 39 39 39 38 37 35 34 33 32 31 31 33 33 31 29 29 29
25 26 27 28 29 31 33 33 32 30 30 30 30 30 31 32 32 32 32 33 33 33 33 34 36 36 37 37 38 39 38 34 33 36 38 39 38 37 37 38 37 35 33 32 33 35 36 36 35 34 33 32 32 32 31 31 34 35 35 33 31 29 28
25 26 28 29 31 32 33 34 31 29 29 30 30 30 31 31 31 31 31 32 33 34 36 38 39 38 38 39 38 39 38 34 30 33 37 39 38 37 38 39 37 35 33 30 29 31 33 35 36 35 36 35 35 34 32 32 33 32 30 31 30 27 24
26 28 30 31 32 32 33 33 31 28 28 29 29 29 29 30 30 30 32 34 35 36 37 38 39 38 37 38 38 37 35 31 29 31 34 35 36 37 40 39 36 34 32 28 26 25 27 30 32 33 35 36 35 35 34 35 35 32 31 31 29 25 22
28 30 31 31 32 31 31 31 30 28 27 28 28 28 28 29 30 32 34 35 35 36 38 38 39 39 38 37 36 35 32 29 28 30 32 33 35 37 38 37 35 34 31 29 27 25 24 25 27 28 31 33 34 35 36 37 38 37 37 37 35 31 28
29 30 31 31 31 31 31 30 30 28 26 27 27 27 27 29 32 33 34 36 37 38 39 39 38 38 38 37 36 34 32 28 27 28 30 33 35 37 35 34 35 34 32 31 30 29 28 27 27 28 30 31 33 35 36 37 38 39 39 40 39 35 33
29 30 30 30 31 31 31 30 29 28 26 26 26 27 27 30 32 34 35 36 38 38 38 39 38 38 37 37 36 34 32 27 25 26 29 32 34 34 32 33 34 34 34 34 34 33 32 31 30 30 31 31 32 34 34 35 36 37 38 38 38 37 36
28 29 30 31 31 31 31 30 29 27 26 25 25 26 28 30 31 32 33 35 37 38 38 38 38 38 37 37 35 32 28 24 23 24 26 29 29 29 30 31 32 32 32 32 31 31 31 30 29 29 29 30 31 32 32 31 31 33 35 36 37 38 39
28 30 31 31 31 31 31 30 29 27 26 25 25 25 27 29 30 30 32 34 36 37 37 37 37 37 36 35 31 27 23 22 23 24 26 27 27 27 30 32 32 31 30 29 29 29 29 28 28 28 28 28 28 28 28 28 29 32 35 36 37 38 39
29 30 31 32 32 32 31 30 30 28 26 25 25 25 26 27 29 30 31 33 36 38 38 38 37 36 34 31 28 26 25 26 27 28 29 29 28 28 30 32 31 30 29 29 29 29 29 28 28 27 27 27 26 26 29 31 32 34 36 37 39 41 42
29 30 31 32 32 32 31 30 30 29 27 26 26 26 25 26 28 30 31 32 35 36 37 38 37 35 34 32 31 32 33 34 34 34 35 34 32 31 32 33 33 31 31 31 31 30 30 29 28 27 26 28 30 32 33 34 35 36 36 37 39 40 41
29 30 31 32 32 32 32 31 30 29 28 28 27 26 25 26 28 29 29 31 33 34 35 36 35 34 33 33 33 33 33 34 35 35 36 37 36 36 36 37 36 35 33 32 31 31 30 29 27 26 26 28 31 33 33 33 33 34 34 34 34 35 37
30 30 31 32 32 32 32 31 30 29 28 27 27 27 27 27 28 28 28 29 30 31 31 31 30 29 29 30 30 29 29 30 31 32 33 34 34 35 35 35 36 35 34 34 33 34 33 30 28 28 28 30 32 33 33 33 32 32 32 32 32 34 36
30 30 30 31 32 31 32 32 30 28 27 27 27 27 28 28 29 28 27 25 23 23 24 25 26 27 28 29 30 30 30 31 32 32 33 33 33 33 33 35 36 36 36 36 36 36 35 34 32 32 32 32 33 33 32 32 32 32 33 33 34 36 38
29 29 29 30 31 31 30 30 28 26 25 25 26 26 28 29 29 28 26 23 21 22 25 26 28 29 30 31 32 32 33 34 33 33 33 33 33 33 34 36 37 36 35 36 37 36 36 35 34 33 32 31 31 31 31 32 33 34 35 35 35 36 37
26 26 26 27 29 30 30 29 28 26 26 26 26 26 26 27 28 28 27 25 24 27 30 31 32 34 34 33 33 33 33 33 33 33 33 33 33 34 36 37 36 35 35 36 36 36 37 35 34 34 33 33 32 31 31 33 35 36 36 36 35 35 34
24 24 24 24 26 28 30 30 28 26 26 27 26 25 25 25 27 27 27 25 24 26 28 28 29 30 31 32 32 32 32 33 32 32 33 33 32 33 35 36 36 35 35 35 36 36 36 36 35 35 34 34 34 34 34 36 37 37 36 35 33 31 31
24 24 24 24 25 27 29 30 29 29 30 31 32 31 31 33 34 34 34 32 32 33 34 33 32 31 30 31 31 30 30 31 31 31 32 31 31 31 32 33 34 35 34 34 34 34 33 34 34 33 33 35 35 35 36 36 36 35 33 30 28 28 28
25 24 24 25 26 27 28 30 31 32 33 35 36 36 37 38 39 40 40 39 39 40 41 41 39 36 34 33 31 29 28 28 28 28 29 29 30 30 30 30 32 34 33 32 31 31 31 32 33 33 33 34 35 34 34 34 33 32 30 28 27 27 27
26 25 25 26 26 26 26 27 27 28 29 30 31 32 32 33 35 37 38 38 37 37 36 36 35 33 31 31 31 30 29 29 28 28 29 29 30 30 30 30 31 33 33 31 31 30 30 31 33 33 33 33 33 32 32 31 30 30 29 27 25 24 24
28 27 26 26 26 25 26 25 25 25 26 26 26 26 24 25 28 30 31 32 32 30 28 29 31 31 30 31 32 33 34 34 33 32 32 31 30 29 29 30 31 32 33 32 32 31 31 31 32 32 31 31 31 30 30 30 29 29 28 26 25 26 26
Wind_Direction
250 250 250 248 247 246 246 245 245 245 246 248 250 253 258 263 266 268 269 267 264 263 263 264 264 265 267 268 269 268 266 265 266 266 262 257 255 254 253 256 257 263 271 276 275 272 272 273 274 272 268 270 276 281 287 289 283 278 274 273 279 284 284
250 250 250 249 249 247 246 246 245 245 246 247 249 251 257 264 267 267 267 265 263 261 261 261 262 264 266 268 269 269 268 268 266 264 261 255 252 254 255 254 256 261 267 272 274 272 273 272 269 270 270 271 276 277 277 276 272 271 271 273 274 274 276
252 251 251 250 249 247 245 244 244 244 245 247 248 252 259 264 267 268 266 263 262 261 260 259 259 262 264 266 267 267 268 270 269 267 264 259 254 253 254 252 252 256 261 268 272 272 272 270 264 267 271 274 276 273 271 272 271 269 270 270 270 271 272
254 253 251 250 247 245 243 243 243 244 244 246 249 254 261 264 266 267 267 265 263 261 260 259 259 261 263 264 264 265 267 267 267 268 262 255 252 249 249 250 250 252 256 264 269 270 270 269 265 266 270 273 272 269 268 271 271 269 269 269 269 270 270
255 253 251 249 247 244 243 242 242 242 244 246 251 257 262 265 266 266 265 264 263 262 261 260 260 261 262 260 258 261 264 264 265 265 257 249 251 251 250 251 249 251 254 257 262 266 268 267 267 268 270 270 269 269 271 271 270 269 268 268 269 269 272
255 254 251 249 247 244 243 241 240 241 244 247 252 259 263 266 267 267 265 264 263 262 262 262 262 262 260 257 257 259 260 261 262 262 257 252 252 253 253 253 252 253 253 254 258 262 265 266 266 267 268 267 266 269 272 272 271 269 267 266 268 272 274
256 255 252 249 246 244 242 240 239 241 245 249 255 260 264 267 268 267 266 265 264 263 263 264 264 263 260 258 259 259 258 259 261 261 260 257 255 254 253 255 257 258 257 257 257 259 262 264 265 265 266 267 267 266 267 270 271 270 267 264 266 270 272
256 254 251 248 245 243 240 239 239 242 246 251 258 263 265 267 268 267 265 264 264 263 264 265 265 264 264 263 262 261 260 261 262 261 261 260 257 256 256 258 261 262 262 262 260 260 262 264 264 263 263 265 265 263 264 265 266 269 268 266 266 267 267
256 253 250 247 244 242 239 239 240 243 249 255 262 265 267 269 268 267 265 263 263 263 264 265 266 266 266 265 264 263 262 264 265 263 262 261 257 256 258 261 263 263 262 262 262 261 261 260 261 260 259 260 259 259 263 265 265 266 267 267 268 266 265
255 252 249 246 243 241 239 239 242 246 253 261 265 267 268 269 268 266 265 264 263 264 265 266 267 268 267 266 265 264 264 265 264 262 262 262 259 257 256 258 261 261 260 258 258 259 258 255 255 256 255 257 258 259 263 265 264 265 265 267 268 267 266
254 251 249 245 242 240 239 241 245 252 259 264 267 269 269 268 266 264 263 263 263 264 265 266 266 266 266 265 264 264 265 264 264 262 262 263 262 261 259 257 258 258 258 257 257 258 257 253 254 258 256 255 257 259 262 262 262 263 264 266 268 270 272
253 250 247 243 240 239 240 244 250 257 263 265 266 269 270 269 266 265 263 262 262 263 264 264 265 265 265 265 266 266 266 266 266 264 263 264 265 264 261 259 259 260 260 260 260 260 259 257 259 261 259 254 255 259 260 260 259 259 261 263 264 268 272
251 248 244 241 239 240 244 250 256 261 265 267 266 265 265 264 263 263 265 266 265 265 265 265 267 269 270 272 273 273 272 272 271 270 269 268 266 264 262 259 259 260 260 261 263 263 262 261 261 261 260 258 259 259 258 257 257 258 261 264 265 266 270
247 244 241 240 241 245 250 256 261 265 267 266 265 262 259 257 256 257 260 263 265 267 269 270 270 271 272 274 274 275 277 277 276 274 274 272 268 263 261 259 257 255 254 254 257 260 262 264 263 262 262 262 262 261 257 256 259 262 266 270 271 271 270
244 241 240 242 246 251 257 261 265 268 267 264 262 260 256 253 253 254 255 255 258 261 263 265 265 266 269 271 272 274 276 278 279 278 276 275 272 268 263 260 259 258 255 252 252 253 257 261 262 263 265 266 267 267 263 262 265 269 270 271 271 270 268
242 242 244 248 253 258 263 266 268 268 266 263 260 257 255 252 251 252 253 253 255 257 257 256 257 260 263 265 267 270 271 272 275 276 276 276 275 273 269 264 263 264 262 260 259 259 259 259 261 265 268 270 272 272 270 269 268 268 267 265 263 263 264
245 248 252 255 260 264 267 268 268 265 263 261 258 256 254 254 253 253 253 255 257 257 257 256 256 257 259 262 265 268 270 270 267 266 270 274 274 273 271 269 269 268 264 261 262 264 266 266 267 269 270 271 272 273 273 269 263 260 261 260 257 259 262
252 256 260 263 266 267 268 267 266 263 260 258 256 254 254 254 253 252 253 255 257 257 259 261 263 263 264 267 270 272 274 276 269 258 259 265 268 269 269 270 271 271 269 267 263 259 259 260 262 263 264 263 264 264 263 259 255 255 258 258 255 257 262
260 264 266 268 268 268 267 267 265 262 258 256 255 253 252 251 250 250 252 255 258 259 261 264 267 270 270 272 275 276 278 279 273 261 256 257 259 261 265 269 272 272 273 274 269 261 255 253 253 254 255 256 256 256 255 255 256 257 259 259 258 258 259
267 269 270 270 270 268 267 266 266 263 259 257 255 253 251 249 248 249 253 256 257 259 262 265 268 272 273 274 275 277 278 277 271 265 261 258 255 256 262 268 271 272 274 274 271 268 262 257 254 252 251 252 253 252 253 255 258 260 261 262 263 261 259
271 272 271 271 271 270 268 267 267 265 262 259 258 256 252 249 248 249 253 256 257 260 264 267 269 272 275 276 276 277 278 275 268 262 261 259 259 261 265 268 269 271 275 274 271 269 267 264 262 259 255 253 252 251 252 253 255 257 259 260 262 263 262
274 274 273 273 271 271 271 270 269 268 266 263 261 259 253 249 249 251 253 256 258 261 265 269 271 273 275 276 277 278 280 278 268 259 256 256 259 263 266 267 268 270 271 268 265 264 264 265 265 264 262 259 256 255 256 257 257 257 257 258 259 261 263
275 274 274 274 274 274 274 274 273 272 270 267 263 260 255 251 251 253 254 256 260 264 268 269 271 273 275 276 277 279 279 274 265 257 254 254 257 260 261 261 262 262 259 255 254 254 255 256 256 257 258 258 259 260 260 258 257 257 258 259 260 261 263
277 276 276 276 277 277 277 278 277 275 272 269 264 260 255 253 252 252 252 253 258 263 266 267 268 272 275 277 280 281 276 268 263 258 255 255 255 255 254 253 254 254 252 248 247 247 248 248 250 252 253 255 257 259 256 252 253 258 263 267 268 267 266
279 279 279 280 280 280 280 280 280 279 275 271 266 261 258 256 255 254 252 252 255 260 262 263 266 271 274 274 275 272 265 260 257 252 249 250 255 258 256 255 256 255 253 251 249 249 251 253 254 255 256 257 254 252 253 256 261 265 268 270 270 270 269
281 281 281 281 282 282 282 282 282 281 278 274 270 266 263 261 260 259 257 255 257 259 261 262 264 266 267 266 264 262 259 257 256 254 252 252 256 260 261 261 260 259 257 256 255 255 257 260 260 259 258 258 257 256 260 265 267 269 270 272 274 275 275
282 281 280 281 281 282 283 283 283 282 280 277 276 275 272 269 265 263 261 259 261 262 263 264 266 267 267 266 264 261 260 259 258 258 257 256 257 258 259 260 262 261 260 258 257 258 261 262 262 261 259 258 260 264 267 269 270 272 274 276 277 277 277
282 282 281 281 282 283 283 283 282 282 282 281 280 278 275 272 269 268 267 267 268 268 268 268 267 266 263 261 259 256 255 255 256 256 258 259 259 260 259 259 260 259 259 259 260 263 264 262 261 261 261 261 265 268 270 273 274 275 275 275 275 275 276
281 282 283 283 282 283 283 283 283 284 285 284 283 281 279 277 277 277 277 275 272 270 269 267 263 260 257 256 256 254 253 255 257 258 258 258 258 257 257 259 261 261 262 264 265 265 265 264 264 264 264 265 267 269 272 274 274 274 274 275 275 275 277
281 282 283 283 282 282 281 281 283 284 284 281 279 279 281 283 284 284 283 280 275 271 270 268 265 263 262 260 260 259 257 257 257 256 257 258 257 256 257 260 263 264 264 264 265 265 265 265 265 264 264 265 266 269 272 273 273 274 275 276 276 276 278
283 284 284 283 284 286 288 290 292 291 287 282 279 277 277 277 277 277 278 277 274 270 267 266 264 264 263 262 259 258 258 257 255 254 255 255 255 256 258 260 262 263 263 263 262 263 264 264 264 264 265 266 267 269 270 271 273 275 276 276 276 276 276
286 285 284 281 280 283 287 291 292 290 287 285 282 278 272 266 263 261 259 258 256 255 255 257 257 258 257 256 254 253 255 255 252 252 253 252 251 253 256 259 261 262 261 260 260 261 261 262 264 264 265 266 267 268 270 272 274 276 276 276 275 274 274
288 286 283 278 274 273 274 273 272 271 271 271 270 266 263 260 260 260 258 256 255 256 258 259 260 258 256 255 253 251 252 253 251 250 251 251 250 250 253 258 262 263 261 260 259 259 260 261 262 263 264 266 268 270 272 273 274 274 274 271 269 268 269
294 292 288 284 280 278 276 274 272 271 270 269 268 266 265 265 266 266 266 264 262 261 262 263 263 261 258 257 255 251 249 248 247 245 246 247 249 252 254 257 260 261 260 260 259 258 258 259 260 261 263 266 269 271 272 272 272 272 271 268 268 269 270
301 299 297 294 291 289 287 284 282 279 277 275 273 272 271 271 270 268 267 266 265 263 261 259 258 256 252 250 250 248 246 246 245 245 248 250 252 255 257 258 259 260 260 260 259 258 258 258 260 262 265 267 269 270 269 269 270 270 270 269 268 267 265
307 306 304 302 300 299 297 294 291 288 286 283 280 279 275 271 269 268 267 266 266 264 258 254 253 251 247 246 248 249 250 252 252 253 256 257 257 258 259 259 259 260 260 260 259 258 258 259 262 264 266 267 268 267 267 268 269 269 269 267 265 264 264